Wind_Speed
42 41 39 38 37 36 35 34 34 32 31 30 30 31 32 30 29 28 27 28 28 28 29 29 30 31 31 32 31 30 28 26 24 23 22 22 23 23 24 25 26 26 25
43 42 40 39 38 38 37 36 35 34 34 33 33 35 36 35 32 30 29 29 30 29 30 30 31 32 32 33 33 32 29 27 25 24 23 24 24 25 24 25 27 27 26
40 39 37 37 37 36 36 36 35 34 34 34 35 37 37 36 35 33 31 31 32 32 31 32 33 33 33 33 34 32 29 28 26 25 25 25 25 26 25 26 27 27 26
35 34 34 33 33 33 33 33 32 33 33 34 35 37 39 39 38 38 37 36 35 35 35 35 35 34 33 33 33 33 31 29 27 26 26 26 26 27 27 27 27 28 28
31 30 30 30 30 30 30 30 30 31 32 34 35 37 40 40 40 41 41 40 39 38 38 37 37 35 34 33 33 33 33 31 29 27 26 26 26 27 27 28 28 28 28
30 30 30 30 30 30 30 30 31 32 33 35 37 38 39 42 44 45 44 42 41 41 39 37 36 36 33 34 34 35 35 32 29 27 26 26 27 28 28 28 30 29 28
32 31 31 32 32 32 32 33 33 35 36 38 39 40 40 42 44 45 45 43 42 40 38 35 35 35 35 35 36 37 36 33 29 27 26 26 27 28 29 29 30 30 29
33 32 32 32 32 33 34 35 36 38 39 40 41 41 41 41 43 43 43 41 40 38 37 36 35 36 36 36 36 37 36 32 28 27 26 27 28 28 29 29 29 29 29
28 28 29 30 30 31 32 34 35 37 37 37 37 37 37 38 39 39 39 39 38 38 37 37 36 36 37 37 37 36 34 30 27 26 27 28 29 29 29 29 29 28 28
21 22 23 24 25 26 28 30 30 31 30 30 31 31 31 33 34 35 35 35 36 36 36 36 36 36 35 33 31 30 27 24 24 25 27 27 28 28 28 28 28 27 26
14 15 15 16 17 18 20 22 23 23 23 24 25 26 27 27 29 30 31 33 32 31 31 29 28 26 25 24 22 20 19 20 22 23 24 25 26 26 27 27 27 26 25
7 6 6 6 7 9 10 12 13 15 17 17 17 17 18 18 18 19 19 17 16 15 15 15 15 15 15 15 16 16 17 19 21 22 23 23 24 24 25 26 25 25 23
4 3 3 3 4 3 3 3 2 3 3 3 4 5 5 6 6 6 6 6 6 6 7 7 8 9 11 13 15 16 18 19 21 21 22 22 22 23 24 25 25 24 23
10 10 10 10 10 9 9 9 9 8 8 7 5 5 4 4 3 2 0 1 1 2 4 6 8 10 11 13 15 17 18 19 20 21 21 22 22 22 23 24 24 23 23
14 14 15 15 14 14 14 14 14 13 12 11 9 8 7 6 5 5 4 4 5 6 7 9 11 12 14 15 17 18 19 20 21 21 21 21 22 22 23 23 23 23 23
17 16 16 16 16 16 15 15 14 13 12 11 10 9 8 7 7 7 7 8 9 10 11 12 14 15 17 18 20 21 21 22 22 22 22 22 22 22 23 23 23 23 23
19 18 17 17 16 16 15 14 13 13 12 10 10 9 8 8 8 9 10 11 12 13 14 15 17 18 19 20 21 22 23 23 23 23 23 22 22 21 22 22 22 23 23
19 18 17 17 16 16 15 15 14 14 13 12 11 10 10 10 10 11 11 12 14 15 16 18 19 20 21 21 22 22 23 23 24 24 23 22 21 21 22 21 21 22 22
18 18 17 16 16 16 16 16 16 15 15 14 14 13 13 12 12 12 13 14 14 15 16 17 18 20 21 21 22 23 23 23 23 23 22 22 21 21 22 21 20 19 19
18 18 17 17 17 17 17 17 17 17 17 17 16 16 15 15 15 15 15 15 15 15 16 17 17 18 19 20 20 20 21 21 22 22 22 21 21 21 21 20 19 18 18
18 18 18 18 18 18 18 18 19 19 19 19 19 19 19 19 18 18 18 17 16 16 16 16 16 17 17 17 18 18 19 19 20 21 20 20 20 20 19 19 18 17 16
17 17 18 18 18 18 18 19 19 19 19 20 20 21 21 21 21 21 21 20 18 17 16 16 15 15 14 14 14 14 15 16 17 17 17 17 18 18 18 17 16 16 14
16 16 17 17 17 18 18 18 18 18 19 19 20 21 22 22 22 22 22 21 21 19 18 17 15 13 11 10 10 10 12 13 13 14 14 15 16 16 16 16 16 15 13
14 15 15 16 16 17 17 17 17 18 18 19 20 22 23 23 24 23 22 22 22 21 19 18 16 13 12 11 10 10 10 10 10 10 11 11 12 14 15 15 14 14 13
12 13 13 14 15 16 17 17 17 17 18 19 20 22 23 24 25 25 24 23 23 23 22 21 19 17 15 15 14 14 12 9 7 5 5 5 7 9 11 12 13 12 11
10 11 12 13 14 15 16 17 17 18 19 20 21 22 23 24 25 26 25 24 24 25 25 24 23 22 20 20 19 19 18 15 12 10 7 4 4 6 7 8 9 10 9
Wind_Direction
268 269 269 269 270 271 272 273 275 275 275 275 275 275 274 273 275 276 277 277 277 275 275 273 271 267 261 257 259 264 267 268 269 268 269 273 278 279 281 283 284 284 285
267 267 267 267 267 268 270 272 273 274 275 275 274 273 272 272 273 275 277 276 277 277 280 278 279 273 266 258 256 259 263 265 264 263 267 271 275 279 280 281 282 284 284
266 265 263 262 263 264 265 267 269 271 273 274 275 273 272 273 274 274 275 276 277 277 278 281 284 279 272 265 259 256 260 261 260 261 264 269 273 277 279 279 281 283 282
263 261 259 258 258 260 261 263 266 270 273 275 275 274 277 276 274 274 275 276 278 279 280 283 285 282 275 269 263 258 258 257 256 259 263 267 272 275 277 279 279 281 282
256 255 253 253 253 254 256 260 264 269 273 276 277 276 276 273 272 273 275 276 279 281 282 284 285 284 277 271 264 258 255 254 254 257 261 265 269 273 277 279 280 281 282
253 253 252 252 253 255 257 260 265 269 274 276 277 275 273 272 272 274 276 276 279 281 284 284 285 283 275 269 262 256 253 251 252 255 259 264 269 272 276 278 281 283 283
256 255 254 253 254 257 259 263 267 270 274 276 276 274 271 270 270 272 274 277 280 282 285 285 286 282 273 267 262 255 251 249 250 254 259 265 269 273 277 279 281 284 284
259 256 254 254 256 259 262 265 268 271 273 274 274 273 270 268 267 270 274 278 283 286 286 285 285 281 273 264 260 253 248 245 247 253 259 265 270 274 277 279 281 282 283
255 254 254 254 257 260 264 267 269 271 273 274 274 272 269 267 268 269 274 277 280 282 282 280 278 275 269 261 254 248 243 242 247 255 262 268 272 275 277 279 280 281 282
251 252 255 258 261 263 266 267 269 270 271 271 271 270 268 268 267 269 271 272 274 274 274 272 269 266 259 253 247 241 239 245 253 260 265 269 272 275 276 277 278 279 280
247 252 258 262 266 270 270 271 271 270 270 269 269 269 268 267 266 266 267 267 266 265 263 260 255 248 243 239 236 238 246 253 259 264 267 269 272 273 274 275 276 276 277
234 246 249 256 265 270 278 280 273 269 268 268 268 266 265 263 260 259 259 256 249 243 238 236 235 234 236 238 243 249 253 258 262 265 267 269 270 272 272 272 272 273 272
101 76 57 50 50 51 37 13 326 296 284 273 258 238 236 240 237 234 228 216 211 216 220 233 242 247 250 254 257 259 261 263 265 266 267 269 269 269 269 269 269 269 269
58 54 50 48 48 51 53 49 50 52 57 59 63 69 77 83 77 61 63 197 231 250 255 261 266 268 266 268 269 269 267 266 266 268 269 270 269 268 268 268 268 268 267
54 52 50 52 54 55 55 52 49 48 49 47 43 43 42 36 27 11 353 333 314 296 283 275 274 275 273 272 272 271 270 269 269 268 269 269 269 268 268 268 268 267 266
52 51 51 53 54 53 51 49 46 44 42 37 31 25 17 9 355 339 325 313 302 294 289 284 280 277 275 272 270 271 270 269 268 268 268 268 268 268 268 268 267 266 266
54 53 55 54 52 49 46 43 40 38 35 29 23 15 5 354 341 328 317 308 300 294 290 286 284 281 278 276 273 272 271 271 270 269 268 268 268 267 268 268 266 265 264
52 49 47 46 46 44 42 40 38 35 31 27 22 15 6 356 345 334 325 316 307 299 292 288 285 284 282 279 276 274 273 272 270 269 269 268 266 265 265 266 266 265 264
48 46 45 44 44 44 43 41 39 38 36 33 28 22 15 6 355 344 335 326 318 310 303 297 292 287 284 281 278 275 272 270 269 268 267 265 263 260 260 261 262 263 264
49 48 47 47 48 48 46 44 43 42 39 36 32 28 22 16 9 1 352 342 333 324 316 307 300 293 287 283 279 274 271 268 266 265 265 264 261 258 258 258 259 261 262
51 49 49 51 51 51 49 47 45 43 40 37 34 30 25 20 14 8 1 354 347 338 330 320 311 303 296 288 282 277 273 269 267 267 265 263 260 257 255 254 253 255 257
52 52 53 54 53 51 50 48 46 43 40 36 31 27 22 18 12 9 6 2 357 350 343 334 326 317 308 300 294 287 280 275 272 269 265 259 256 253 250 249 247 248 250
53 53 53 52 51 50 48 45 42 39 35 31 27 23 20 17 14 13 11 10 7 4 359 353 348 344 337 328 318 307 296 287 280 274 268 261 254 248 244 242 241 241 240
53 52 51 50 48 46 42 40 37 34 30 27 24 22 20 19 18 17 16 16 17 19 18 16 16 14 12 6 355 341 326 309 299 287 272 262 252 243 237 233 231 231 229
50 49 47 44 42 38 34 32 30 28 26 25 24 22 22 22 22 22 23 24 27 28 30 30 32 33 32 28 21 13 5 358 347 328 292 264 244 229 222 219 218 218 215
45 43 40 37 34 31 28 26 25 25 25 24 23 22 23 24 26 27 29 32 34 35 37 39 41 43 42 38 35 33 34 37 41 46 60 77 125 162 173 181 184 188 193
Height
5866 5868 5870 5870 5871 5871 5872 5873 5874 5875 5875 5876 5876 5875 5875 5875 5876 5876 5877 5876 5876 5876 5876 5875 5875 5875 5876 5877 5878 5878 5879 5879 5880 5880 5880 5880 5879 5879 5878 5877 5875 5875 5875
5856 5858 5860 5861 5863 5863 5864 5865 5866 5866 5868 5868 5868 5867 5866 5867 5868 5869 5870 5870 5869 5869 5869 5869 5868 5867 5868 5869 5870 5871 5872 5873 5873 5874 5874 5874 5874 5873 5873 5872 5870 5869 5869
5846 5848 5850 5852 5853 5854 5855 5856 5857 5858 5859 5859 5859 5857 5856 5858 5859 5860 5861 5862 5862 5861 5861 5861 5860 5860 5860 5860 5862 5863 5864 5866 5867 5867 5868 5868 5868 5867 5867 5866 5864 5863 5863
5836 5838 5840 5842 5844 5846 5847 5848 5849 5850 5850 5850 5850 5848 5847 5847 5849 5850 5851 5853 5853 5853 5853 5852 5852 5852 5852 5853 5854 5856 5857 5858 5859 5860 5861 5862 5862 5861 5860 5860 5859 5858 5857
5826 5829 5831 5833 5835 5837 5839 5840 5841 5842 5842 5843 5842 5841 5841 5839 5839 5840 5840 5841 5842 5843 5844 5844 5844 5844 5844 5845 5846 5848 5850 5851 5852 5853 5854 5854 5855 5854 5854 5853 5852 5852 5851
5817 5820 5823 5825 5827 5829 5831 5832 5833 5834 5834 5834 5834 5834 5833 5832 5831 5831 5830 5830 5832 5833 5834 5834 5835 5835 5836 5838 5839 5840 5841 5843 5845 5846 5846 5847 5848 5847 5847 5846 5844 5844 5845
5809 5812 5814 5816 5818 5821 5822 5824 5824 5825 5825 5825 5824 5824 5824 5824 5823 5823 5823 5823 5823 5824 5825 5825 5826 5827 5828 5829 5830 5831 5833 5835 5836 5838 5839 5840 5840 5840 5839 5839 5838 5838 5838
5801 5803 5805 5807 5809 5811 5813 5814 5814 5815 5815 5815 5814 5814 5814 5814 5814 5814 5814 5815 5816 5816 5817 5817 5817 5817 5818 5820 5821 5823 5825 5826 5828 5830 5832 5833 5833 5833 5832 5832 5832 5831 5831
5793 5795 5797 5799 5801 5802 5803 5804 5804 5804 5804 5804 5803 5803 5803 5804 5805 5805 5806 5807 5807 5808 5807 5808 5808 5808 5809 5811 5812 5814 5816 5818 5820 5822 5824 5825 5825 5825 5825 5825 5824 5825 5824
5787 5789 5791 5792 5793 5794 5794 5794 5794 5794 5794 5794 5794 5794 5795 5795 5796 5797 5798 5799 5799 5799 5798 5798 5799 5800 5801 5803 5805 5807 5809 5811 5814 5815 5817 5817 5818 5818 5818 5818 5818 5818 5818
5784 5786 5787 5787 5788 5788 5788 5787 5787 5787 5787 5787 5787 5787 5787 5787 5788 5789 5790 5790 5790 5791 5791 5791 5792 5793 5795 5797 5799 5801 5803 5806 5808 5809 5810 5810 5811 5811 5811 5811 5811 5812 5812
5783 5784 5784 5784 5784 5784 5784 5783 5782 5782 5782 5782 5782 5782 5782 5782 5782 5783 5783 5784 5784 5784 5786 5787 5788 5790 5791 5793 5795 5797 5799 5800 5802 5802 5803 5804 5804 5804 5805 5805 5806 5806 5806
5784 5784 5784 5783 5783 5783 5782 5782 5781 5780 5780 5780 5780 5780 5780 5780 5780 5781 5781 5781 5782 5783 5784 5785 5787 5788 5789 5790 5792 5793 5794 5795 5796 5796 5797 5797 5798 5798 5799 5799 5800 5800 5801
5786 5785 5785 5785 5784 5784 5783 5782 5782 5781 5781 5780 5781 5780 5780 5780 5780 5780 5781 5781 5781 5782 5783 5784 5785 5786 5787 5787 5788 5788 5789 5789 5790 5790 5790 5791 5792 5792 5793 5793 5794 5794 5795
5789 5789 5788 5788 5787 5786 5785 5785 5785 5784 5783 5783 5782 5782 5781 5781 5781 5781 5781 5781 5781 5781 5782 5782 5782 5783 5783 5783 5782 5782 5783 5783 5784 5784 5785 5785 5785 5786 5786 5787 5788 5788 5789
5793 5793 5792 5791 5790 5789 5789 5788 5787 5787 5786 5785 5784 5783 5783 5782 5782 5781 5781 5781 5780 5780 5779 5779 5778 5778 5777 5777 5776 5776 5776 5777 5777 5778 5779 5779 5779 5779 5780 5781 5781 5782 5784
5798 5797 5795 5794 5793 5792 5791 5791 5789 5788 5787 5786 5785 5784 5783 5782 5781 5780 5779 5778 5777 5776 5775 5774 5773 5772 5771 5771 5770 5770 5770 5770 5770 5771 5772 5773 5773 5773 5774 5774 5775 5776 5777
5802 5800 5799 5798 5796 5795 5794 5793 5791 5790 5788 5787 5786 5784 5783 5781 5780 5778 5777 5775 5773 5772 5770 5769 5767 5766 5765 5764 5763 5763 5763 5763 5763 5763 5765 5766 5766 5767 5767 5768 5769 5770 5771
5806 5804 5803 5801 5799 5798 5797 5795 5794 5792 5790 5788 5786 5784 5782 5781 5779 5776 5774 5772 5770 5767 5765 5763 5761 5760 5758 5757 5756 5756 5755 5755 5756 5756 5757 5758 5759 5760 5760 5762 5763 5764 5765
5810 5808 5806 5805 5803 5801 5800 5798 5796 5794 5792 5790 5788 5785 5783 5781 5778 5775 5772 5769 5766 5763 5760 5758 5755 5753 5752 5750 5749 5749 5748 5748 5748 5749 5750 5751 5752 5753 5754 5756 5757 5759 5760
5814 5812 5810 5808 5807 5805 5803 5801 5799 5797 5794 5792 5790 5787 5784 5781 5778 5775 5771 5767 5763 5760 5757 5753 5750 5748 5745 5744 5742 5742 5741 5741 5741 5742 5743 5744 5744 5746 5747 5749 5751 5753 5755
5819 5816 5814 5813 5811 5809 5807 5805 5803 5800 5798 5795 5792 5789 5786 5783 5779 5774 5770 5766 5761 5757 5753 5749 5746 5743 5740 5738 5737 5736 5735 5734 5734 5735 5735 5736 5738 5739 5741 5743 5746 5748 5750
5823 5821 5819 5817 5815 5813 5811 5808 5806 5803 5801 5798 5795 5792 5788 5784 5780 5775 5771 5766 5761 5756 5751 5746 5742 5739 5737 5735 5733 5732 5730 5729 5728 5728 5729 5730 5731 5733 5735 5737 5740 5743 5746
5827 5825 5823 5821 5819 5817 5815 5812 5809 5807 5804 5801 5798 5794 5790 5786 5781 5777 5772 5767 5762 5757 5752 5747 5742 5739 5736 5734 5732 5729 5727 5725 5723 5723 5723 5724 5725 5727 5729 5732 5736 5739 5742
5831 5829 5827 5825 5823 5821 5818 5815 5813 5810 5807 5804 5800 5797 5793 5789 5784 5779 5774 5769 5764 5759 5754 5750 5745 5742 5739 5736 5733 5729 5726 5722 5720 5719 5719 5719 5720 5722 5725 5728 5732 5736 5740
5834 5832 5830 5828 5826 5824 5821 5818 5815 5812 5809 5806 5803 5799 5795 5791 5787 5782 5777 5772 5768 5763 5759 5754 5750 5746 5743 5739 5735 5731 5727 5724 5721 5719 5718 5718 5719 5721 5724 5727 5731 5735 5738